カタログに戻る

ATLAS 5 CENTAUR DEB

運用中HEO
NORAD 43983·DEBRIS·🇺🇸 United States

打ち上げ Sep 17, 2014 から Cape Canaveral Space Force Station

Loading…

次のパス (今後24時間)

TLE

最新Source: Space-Track

元期: Sep 12, 2026, 18:14 UTC

1 43983U 14055AN  26255.76014628 -.00000126  00000-0  00000-0 0  9996
2 43983  20.8350 107.7901 4876444 228.9621  77.3627  1.90078902 55669

AllMySatでATLAS 5 CENTAUR DEBをリアルタイム追跡

Download on the App Store